Regional Weather Roundup
Issued by NWS

Home | Current Version | Previous Version | Graphics & Text | Print | Product List | Glossary On
Versions: 1 2 3 4 5 6 7 8 9 10 11 12 13 14 15 16 17 18 19 20 21 22 23 24 25 26 27 28 29 30 31 32 33 34 35 36 37 38 39 40 41 42 43 44 45 46 47 48 49 50
000
ASUS45 KTFX 011019
RWRMT
MONTANA HOURLY WEATHER ROUNDUP
NATIONAL WEATHER SERVICE GREAT FALLS MT
419 AM MDT WED APR 1 2015

NOTE: "FAIR" INDICATES FEW OR NO CLOUDS BELOW 12000 FEET WITH NO
SIGNIFICANT WEATHER AND/OR OBSTRUCTIONS TO VISIBILITY.

* THESE STATIONS ARE NOT UNDER NWS QUALITY CONTROL. THEY DO NOT
   REPORT WEATHER SUCH AS PRECIPITATION OR FOG.

MTZ001>007-043-011100-
WEST OF THE DIVIDE
CITY           SKY/WX    TMP DP  RH WIND       PRES   REMARKS
KALISPELL      PTCLDY    30  27  89 SW3       29.87S
MISSOULA       MOCLDY    34  27  76 SE3       29.97S
BUTTE          MOCLDY    32  16  52 NW14G26   29.91R WCI  22
MULLAN PASS    PTCLDY    21  18  88 W9G23     29.91R WCI  11
* ESSEX        N/A       34  28  79 SW2G8      N/A
* EUREKA APT   PTCLDY    39  28  65 SE6       29.88R WCI  35
* HAMILTON APT MOCLDY    37  25  62 S9        29.98S WCI  30
* LIBBY APT    PTCLDY    36  19  50 NW3       29.92R
* LINCOLN      N/A       34  23  64 W5G12      N/A   WCI  29
* LOOKOUT PASS N/A       29  20  69 E8         N/A   WCI  21
* POLSON       N/A       31  22  69 S2         N/A
* RONAN APT    PTCLDY    39  21  48 S10G16     N/A   WCI  32
* SEELEY LAKE  N/A       26  23  88 NE2        N/A
* THOMP F APT  CLEAR     29  24  82 NW10G30    N/A   WCI  20
* YAAK HILL    N/A       32  30  92 SW2        N/A
$$

MTZ008-052>055-011100-
SOUTHWEST MONTANA
CITY           SKY/WX    TMP DP  RH WIND       PRES   REMARKS
BOZEMAN        CLOUDY    34  30  85 S5        29.91S WCI  29
DILLON         CLOUDY    32  27  82 W10       29.91R WCI  24
* W YELLOWSTON CLOUDY    31  29  92 SW5G14     N/A   WCI  26
* THREE FORKS  CLOUDY    36  34  92 N/A        N/A
* TWIN BRIDGES CLOUDY    36  21  54 N/A        N/A
* BOULDER HILL N/A       32  15  49 S4G15      N/A
* HOMESTAKE PS N/A       28  16  61 NW6G14     N/A   WCI  21
* MONIDA PASS  N/A       24  18  78 NW12G20    N/A   WCI  13
* RAYNOLDS PAS N/A       25  23  92 NW19G24    N/A   WCI  11
* WHITEHALL    N/A       38  16  41 NW5G15     N/A   WCI  34
* WISE RIVER   N/A       31  17  56 W13G19     N/A   WCI  21
$$

MTZ009>010-012-014-046-048-049-054-011100-
EAST SLOPES AND CENTRAL MONTANA
CITY           SKY/WX    TMP DP  RH WIND       PRES   REMARKS
CUT BANK       PTCLDY    34  25  70 W25       29.73R WCI  21
GREAT FALLS    MOCLDY    37  18  46 SW18      29.79R WCI  27
HELENA         MOCLDY    39  21  48 W8        29.89S WCI  33
MALMSTROM AFB  CLOUDY    41  18  39 W22G31    29.80R
* CONRAD       CLEAR     37  23  57 SW17G25    N/A   WCI  27
* DEARBORN     N/A       41  18  39 S6G13      N/A
* EAST GLACIER N/A       30  25  82 W13        N/A   WCI  20
* MONARCH      N/A       32  14  47 W15        N/A   WCI  22
* PENDROY      N/A       34  15  46 W18G24     N/A   WCI  23
* ROGERS PASS  N/A       30  19  64 SE13G23    N/A   WCI  20
* SAINT MARY   N/A       32  23  69 SW6G15     N/A   WCI  26
* SWEET GRASS  N/A       36  25  64 W24G30     N/A   WCI  24
* WHITE SULPH  N/A       33  17  52 NW5G10     N/A   WCI  28
$$

MTZ011-013-016-021-035-040-045-047-050-051-011100-
NORTH CENTRAL MONTANA
CITY           SKY/WX    TMP DP  RH WIND       PRES   REMARKS
HAVRE          CLOUDY    45  25  45 W22       29.69R
LEWISTOWN      CLOUDY    39  25  57 NW14G26   29.74R WCI  31
* N BAR RANCH  MOCLDY    37  27  67 NW23G30   29.71R WCI  26
* CHINOOK      CLOUDY    45  23  42 W18G23    29.69F
* FORT BENTON  CLOUDY    37  21  52 SW12      29.77S WCI  29
* MALTA APT    MOCLDY    48  27  44 W20G26     N/A
* CHESTER      N/A       39  22  51 NW12G19    N/A   WCI  32
* DENTON       N/A       41  25  53 W24G31     N/A
* GEYSER       N/A       37  23  57 W21G27     N/A   WCI  26
* JUDITH GAP   N/A       34  26  73 W20G27     N/A   WCI  23
* LOMA         N/A       41  21  45 SW11       N/A
$$

MTZ017>020-022>027-061-062-011100-
NORTHEAST MONTANA
CITY           SKY/WX    TMP DP  RH WIND       PRES   REMARKS
GLASGOW        MOCLDY    50  32  50 W24G36    29.60F
GLENDIVE       PTCLDY    52  36  55 NW33G44   29.53R
JORDAN         MOCLDY    48  34  59 NW18      29.65R
SIDNEY         CLEAR     54  37  53 W22G30    29.51R
WOLF POINT     PTCLDY    54  37  53 NW17G29   29.56R
* BEAVER HILL  N/A       52  39  61 NW27G38    N/A
* CIRCLE       N/A       50  38  64 NW10G17    N/A
* LINDSAY DVD  N/A       48  37  66 NW26G33    N/A
* NAVAJO       N/A       48  40  74 NW27G35    N/A
* PLENTYWOOD A MOCLDY    48  41  77 NW20G29   29.49R
* POPLAR APT   PTCLDY    52  43  72 W15       29.56R
* SACO         N/A       47  35  63 W19        N/A
$$

MTZ028>042-056>058-011100-
SOUTHCENTRAL AND SOUTHEAST MONTANA
CITY           SKY/WX    TMP DP  RH WIND       PRES   REMARKS
BAKER          PTCLDY    54  37  53 NW20G31   29.55R
BILLINGS       CLOUDY    45  21  38 NW17G25   29.75R
LIVINGSTON     LGT SNOW  36  28  73 W20       29.86S WCI  25
MILES CITY     PTCLDY    52  37  57 NW18G32   29.63R
* BIG TIMBER A MOCLDY    36  21  54 SW33G41   29.78R WCI  22
* FORSYTH APT  MOCLDY    50  36  59 W7        29.67R
* LAUREL APT   PTCLDY    45  27  49 W10G17     N/A
* ROUNDUP APT  CLOUDY    46  30  54 S7         N/A
* ALZADA       N/A       56  32  40 W14G20     N/A
* HYSHAM       N/A       48  33  56 W8G15      N/A
* LAME DEER    N/A       45  34  65 NW11G20    N/A
* REED POINT   N/A       41  25  53 W21G28     N/A
* ROSCOE HILL  N/A       35  27  73 SE9G16     N/A   WCI  28
$$

REGIONAL REPORTS...DAKOTAS
CITY           SKY/WX    TMP DP  RH WIND       PRES   REMARKS
WILLISTON      PTCLDY    52  37  57 NW24G33   29.45R
DICKINSON      MOCLDY    52  27  38 W18       29.42R
BEACH          CLEAR     50  39  66 NW23G29   29.54R
CROSBY         CLEAR     39  39 100 NW21      29.42R WCI  29
TIOGA          CLEAR     39  32  76 W6        29.41R WCI  35
WATFORD CITY   CLEAR     54  34  47 W24G32    29.39R
BISMARCK       CLOUDY    48  36  63 NE7       29.40F
GRAND FORKS    CLEAR     45  28  51 SE13      29.53F
FARGO          PTCLDY    54  30  40 SE20G25   29.54F
BUFFALO SD     MOCLDY    55  28  35 NW25      29.42R
RAPID CITY     MOCLDY    52  23  32 S7        29.47F
$$

REGIONAL REPORTS...WYOMING/IDAHO/WASHINGTON
CITY           SKY/WX    TMP DP  RH WIND       PRES   REMARKS
GILLETTE       CLOUDY    55  28  35 NW26G35   29.64R
SHERIDAN       CLOUDY    46  36  68 NW21      29.70S
CODY           PTCLDY    41  34  76 N9        29.75R
SALMON         MOCLDY    34  25  70 NE6       29.99R WCI  29
MULLAN PASS    PTCLDY    21  18  88 W9G23     29.91S WCI  11
SAND POINT     PTCLDY    36  23  59 W5        29.97R WCI  32
SPOKANE        MOCLDY    34  25  70 SW13      30.03R WCI  25
$$

REGIONAL REPORTS...ALBERTA
CITY           SKY/WX    TMP DP  RH WIND       PRES   REMARKS
CALGARY        MOCLDY    36  23  59 W8        29.68R WCI  30
LETHBRIDGE     LGT SNOW  34  32  92 NW6       29.76R VSB 1 1/2 WCI  29
MEDICINE HAT   CLOUDY    41  32  70 W7        29.68R
EDMONTON       MOCLDY    36  27  70 W25G45    29.57S WCI  24
WATERTON GATE  N/A       36  19  50 SW22G37    N/A   WCI  25
CARDSTON       N/A       37  21  52 W12G18     N/A   WCI  29
MILK RIVER     N/A       34  27  76 N5         N/A   WCI  29
$$

REGIONAL REPORTS...SASKATCHEWAN
CITY           SKY/WX    TMP DP  RH WIND       PRES   REMARKS
SWIFT CURRENT  CLOUDY    41  36  82 W18G24    29.53R
MOOSE JAW      CLOUDY    46  39  77 W13       29.48F
REGINA         LGT RAIN  45  43  93 CALM      29.45F
VAL MARIE      N/A       45  30  56 W24G33     N/A
ASSINIBOIA     N/A       43  37  79 W13        N/A
CORONACH       N/A       45  39  80 W15G22     N/A

$$




USA.gov is the U.S. government's official web portal to all federal, state and local government web resources and services.